Flag Weather past 2 weeks in Białystok, Poland

Now
21 °F

Fog.


Feels Like: 21 °F
Forecast: 22 / 29 °F
Wind: 2 mph from Southeast

Location: Bialystok

Current Time: Nov 27, 2014 at 1:19:40 PM

Latest Report: Nov 27, 2014 at 12:00 PM


Visibility: 4 mi

Pressure: 30.33 "Hg

Humidity: 89%

Dew point: 19 °F

Location of BiałystokLocation

Historic Weather in Białystok — Graph

°F

Białystok temperature yesterday

Maximum temperature yesterday: 30 °F (at 12:00 AM)
Minimum temperature yesterday: 27 °F (at 11:00 PM)
Average temperature yesterday: 29 °F

Past Weeks' High & Low Weather Summary

 TemperatureHumidityPressure
High45 °F (Nov 13, 7:00 PM)100% (Nov 22, 10:00 PM)30.55 "Hg (Nov 22, 10:00 PM)
Low21 °F (Nov 27, 10:00 AM)69% (Nov 18, 3:00 PM)30.03 "Hg (Nov 13, 3:00 AM)
Average34 °F91%30.26 "Hg
* Reported Nov 12 12:00 Noon — Nov 27 12:00 Noon, Białystok, Weather by CustomWeather, © 2014

Note: Actual official high and low records may vary slightly from our data, if they occured in-between our weather recording intervals... More about our weather records

Advertising

Białystok weather history for previous 24 hours

 ConditionsComfort  
Time TempWeatherWind HumidityBarometerVisibility
12:00 PM
Nov 27
21 °FFog.2 mph89%30.33 "Hg4 mi
11:00 AM21 °FLow clouds.2 mph94%30.34 "Hg3 mi
10:00 AM21 °FSnow flurries. Low clouds.2 mph94%30.34 "Hg3 mi
9:00 AM22 °FFog.3 mph92%30.34 "Hg4 mi
8:00 AM23 °FFog.3 mph94%30.34 "Hg3 mi
7:00 AM23 °FFog.3 mph93%30.33 "Hg3 mi
6:00 AM24 °FFog.3 mph95%30.32 "Hg2 mi
5:00 AM25 °FSnow flurries. Low clouds.3 mph97%30.32 "Hg1 mi
4:00 AM26 °FSnow flurries. Low clouds.2 mph95%30.32 "Hg1 mi
3:00 AM26 °FSnow flurries. Low clouds.3 mph94%30.32 "Hg2 mi
2:00 AM26 °FSnow flurries. Low clouds.2 mph95%30.33 "Hg2 mi
12:00 AM27 °FSnow flurries. Low clouds.2 mph93%30.34 "Hg2 mi
11:00 PM
Nov 26
27 °FLight snow. Low clouds.2 mph93%30.34 "Hg2 mi
10:00 PM28 °FLight snow. Low clouds.2 mph94%30.34 "Hg2 mi
9:00 PM28 °FSnow flurries. Low clouds.2 mph94%30.35 "Hg2 mi
8:00 PM28 °FSnow flurries. Low clouds.2 mph95%30.34 "Hg1 mi
7:00 PM28 °FSnow flurries. Low clouds.2 mph95%30.34 "Hg1 mi
6:00 PM28 °FSnow flurries. Low clouds.2 mph96%30.35 "Hg1 mi
5:00 PM28 °FSnow flurries. Low clouds.2 mph96%30.35 "Hg1 mi
4:00 PM28 °FSnow flurries. Low clouds.2 mph95%30.36 "Hg1 mi
3:00 PM29 °FLow clouds.3 mph94%30.36 "Hg2 mi
2:00 PM29 °FLight snow. Low clouds.2 mph95%30.36 "Hg2 mi
1:00 PM29 °FSnow flurries. Low clouds.3 mph93%30.36 "Hg2 mi
Weather by CustomWeather, © 2014

See weather overviewHow to use our weather pages